SWN363 EBBR-EKVG

Flight info

Callsign SWN363
Flight time 2h 3m
Altitude 40000
Route NIK L191 VICOT N873 SPY L602 SUPUR P1 GODOS DCT LARDI DCT VENAS DCT CUTEL DCT FORTY DCT MOCHA DCT OSBON DCT ROBUR
Aircraft B752/M-SDE2E3FGHIJ3J4J7RWXY/LB1

Departure

Time 2026-05-06 12:19
Airport Brussels Airport (EBBR)

Arrival

Time 2026-05-06 14:22
Airport Vágar Airport (EKVG)
Time Latitude Longitude Altitude Speed Heading
2026-05-06 11:52 50.90434 4.46326 132 ft 0 kts 336°
2026-05-06 12:08 50.90425 4.46332 132 ft 2 kts 336°
2026-05-06 12:08 50.90412 4.46341 132 ft 2 kts 336°
2026-05-06 12:08 50.90398 4.46351 132 ft 2 kts 336°
2026-05-06 12:09 50.90385 4.46361 132 ft 2 kts 336°
2026-05-06 12:09 50.90371 4.46371 132 ft 2 kts 353°
2026-05-06 12:09 50.90356 4.46367 132 ft 2 kts 29°
2026-05-06 12:09 50.90346 4.46352 133 ft 1 kts 62°
2026-05-06 12:10 50.90344 4.46343 133 ft 1 kts 67°
2026-05-06 12:10 50.90343 4.46341 133 ft 0 kts 66°
2026-05-06 12:11 50.90347 4.46356 133 ft 3 kts 66°
2026-05-06 12:12 50.90360 4.46422 132 ft 9 kts 82°
2026-05-06 12:12 50.90348 4.46538 132 ft 5 kts 112°
2026-05-06 12:12 50.90335 4.46585 132 ft 5 kts 115°
2026-05-06 12:12 50.90311 4.46663 131 ft 14 kts 116°
2026-05-06 12:13 50.90254 4.46851 131 ft 19 kts 117°
2026-05-06 12:13 50.90196 4.47042 132 ft 18 kts 116°
2026-05-06 12:13 50.90187 4.47209 132 ft 18 kts 63°
2026-05-06 12:13 50.90249 4.47424 131 ft 24 kts 66°
2026-05-06 12:14 50.90319 4.47666 131 ft 23 kts 66°
2026-05-06 12:14 50.90387 4.47895 130 ft 21 kts 71°
2026-05-06 12:14 50.90442 4.48098 130 ft 19 kts 65°
2026-05-06 12:14 50.90501 4.48294 130 ft 20 kts 65°
2026-05-06 12:15 50.90558 4.48495 130 ft 19 kts 66°
2026-05-06 12:15 50.90613 4.48684 130 ft 18 kts 65°
2026-05-06 12:15 50.90665 4.48862 130 ft 17 kts 65°
2026-05-06 12:15 50.90715 4.49032 130 ft 16 kts 64°
2026-05-06 12:16 50.90766 4.49210 129 ft 20 kts 65°
2026-05-06 12:16 50.90826 4.49419 128 ft 20 kts 66°
2026-05-06 12:16 50.90884 4.49621 127 ft 19 kts 66°
2026-05-06 12:16 50.90943 4.49803 126 ft 16 kts 50°
2026-05-06 12:17 50.91010 4.49890 125 ft 9 kts 27°
2026-05-06 12:17 50.91077 4.49935 123 ft 12 kts 19°
2026-05-06 12:17 50.91133 4.49925 122 ft 6 kts 315°
2026-05-06 12:17 50.91134 4.49866 122 ft 4 kts 246°
2026-05-06 12:18 50.91133 4.49861 122 ft 0 kts 246°
2026-05-06 12:18 50.91132 4.49860 122 ft 0 kts 246°
2026-05-06 12:18 50.91114 4.49794 123 ft 26 kts 246°
2026-05-06 12:19 50.90919 4.49122 126 ft 107 kts 247°
2026-05-06 12:19 50.90496 4.47672 187 ft 173 kts 249°
2026-05-06 12:19 50.89968 4.45810 746 ft 195 kts 253°
2026-05-06 12:19 50.89861 4.43646 1333 ft 210 kts 291°
2026-05-06 12:20 50.90646 4.41705 1851 ft 219 kts 327°
2026-05-06 12:20 50.92009 4.40486 2438 ft 233 kts 335°
2026-05-06 12:20 50.93475 4.39232 3035 ft 250 kts 334°
2026-05-06 12:20 50.95008 4.37873 3908 ft 254 kts 334°
2026-05-06 12:21 50.96552 4.36496 4769 ft 259 kts 333°
2026-05-06 12:21 50.98112 4.35095 5655 ft 262 kts 333°
2026-05-06 12:21 50.99599 4.33755 6442 ft 265 kts 332°
2026-05-06 12:21 51.01202 4.32306 7280 ft 268 kts 332°
2026-05-06 12:22 51.02835 4.30828 8058 ft 273 kts 331°
2026-05-06 12:22 51.04465 4.29351 8782 ft 276 kts 331°
2026-05-06 12:22 51.06162 4.27810 9159 ft 282 kts 331°
2026-05-06 12:22 51.07861 4.26267 9637 ft 283 kts 331°
2026-05-06 12:23 51.09576 4.24707 10054 ft 286 kts 331°
2026-05-06 12:23 51.11336 4.23105 10181 ft 300 kts 331°
2026-05-06 12:23 51.13176 4.21430 10520 ft 318 kts 331°
2026-05-06 12:23 51.15145 4.19635 10847 ft 337 kts 330°
2026-05-06 12:24 51.17188 4.17665 11295 ft 349 kts 324°
2026-05-06 12:24 51.19131 4.15333 12009 ft 352 kts 323°
2026-05-06 12:24 51.21092 4.13021 12725 ft 356 kts 323°
2026-05-06 12:24 51.23103 4.10646 13433 ft 360 kts 323°
2026-05-06 12:25 51.25110 4.08283 14140 ft 362 kts 324°
2026-05-06 12:25 51.27305 4.06368 14735 ft 368 kts 340°
2026-05-06 12:25 51.29831 4.05488 15417 ft 372 kts 355°
2026-05-06 12:25 51.32417 4.05402 16047 ft 376 kts 358°
2026-05-06 12:26 51.35014 4.05334 16659 ft 380 kts 358°
2026-05-06 12:26 51.37663 4.05274 17279 ft 383 kts 358°
2026-05-06 12:26 51.40359 4.05215 17837 ft 388 kts 358°
2026-05-06 12:26 51.43071 4.05160 18422 ft 392 kts 359°
2026-05-06 12:27 51.45771 4.05112 19008 ft 394 kts
2026-05-06 12:27 51.48531 4.05664 19528 ft 400 kts 14°
2026-05-06 12:27 51.51117 4.07185 20058 ft 403 kts 24°
2026-05-06 12:27 51.53662 4.09097 20589 ft 407 kts 24°
2026-05-06 12:28 51.56246 4.11014 21101 ft 411 kts 24°
2026-05-06 12:28 51.58830 4.12934 21603 ft 414 kts 24°
2026-05-06 12:28 51.61460 4.14889 22098 ft 418 kts 24°
2026-05-06 12:28 51.64090 4.16846 22572 ft 421 kts 24°
2026-05-06 12:29 51.66754 4.18829 23056 ft 424 kts 24°
2026-05-06 12:29 51.69350 4.20765 23517 ft 427 kts 24°
2026-05-06 12:29 51.72039 4.22772 23949 ft 430 kts 24°
2026-05-06 12:29 51.74656 4.24728 24380 ft 434 kts 24°
2026-05-06 12:30 51.77391 4.26778 24841 ft 436 kts 24°
2026-05-06 12:30 51.80085 4.28800 25228 ft 440 kts 24°
2026-05-06 12:30 51.82868 4.30892 25662 ft 443 kts 24°
2026-05-06 12:30 51.85663 4.32995 26069 ft 446 kts 24°
2026-05-06 12:31 51.88475 4.35115 26399 ft 450 kts 24°
2026-05-06 12:31 51.91287 4.37237 26818 ft 452 kts 24°
2026-05-06 12:31 51.94076 4.39344 27179 ft 455 kts 24°
2026-05-06 12:31 51.96937 4.41510 27556 ft 458 kts 24°
2026-05-06 12:32 51.99845 4.43714 27888 ft 461 kts 24°
2026-05-06 12:32 52.02830 4.45618 28282 ft 462 kts 15°
2026-05-06 12:32 52.05979 4.46727 28563 ft 464 kts
2026-05-06 12:32 52.09211 4.46968 28952 ft 464 kts 356°
2026-05-06 12:33 52.12341 4.46388 29219 ft 466 kts 347°
2026-05-06 12:33 52.15436 4.44970 29568 ft 466 kts 338°
2026-05-06 12:33 52.18359 4.42823 29851 ft 467 kts 329°
2026-05-06 12:33 52.21189 4.40150 30188 ft 468 kts 328°
2026-05-06 12:34 52.24004 4.37523 30456 ft 471 kts 328°
2026-05-06 12:34 52.26879 4.34863 30793 ft 473 kts 328°
2026-05-06 12:34 52.29744 4.32224 31093 ft 475 kts 328°
2026-05-06 12:34 52.32624 4.29575 31323 ft 478 kts 328°
2026-05-06 12:35 52.35524 4.26910 31686 ft 477 kts 329°
2026-05-06 12:35 52.38411 4.24256 32072 ft 476 kts 329°
2026-05-06 12:35 52.41268 4.21628 32411 ft 475 kts 329°
2026-05-06 12:35 52.44142 4.18981 32752 ft 474 kts 329°
2026-05-06 12:36 52.47011 4.16335 33094 ft 473 kts 329°
2026-05-06 12:36 52.49857 4.13707 33376 ft 473 kts 329°
2026-05-06 12:36 52.52729 4.11052 33703 ft 471 kts 329°
2026-05-06 12:36 52.55555 4.08435 34029 ft 470 kts 329°
2026-05-06 12:37 52.58391 4.05806 34320 ft 469 kts 329°
2026-05-06 12:37 52.61223 4.03175 34586 ft 468 kts 329°
2026-05-06 12:37 52.64058 4.00539 34816 ft 468 kts 329°
2026-05-06 12:37 52.66884 3.97907 35031 ft 467 kts 329°
2026-05-06 12:38 52.69686 3.95294 35205 ft 467 kts 329°
2026-05-06 12:38 52.72522 3.92645 35346 ft 467 kts 329°
2026-05-06 12:38 52.75310 3.90036 35504 ft 467 kts 329°
2026-05-06 12:38 52.78148 3.87378 35637 ft 467 kts 329°
2026-05-06 12:39 52.80975 3.84725 35793 ft 467 kts 329°
2026-05-06 12:39 52.83770 3.82098 35913 ft 467 kts 329°
2026-05-06 12:39 52.89439 3.76758 35927 ft 465 kts 329°
2026-05-06 12:40 52.95021 3.71504 35931 ft 464 kts 331°
2026-05-06 12:40 53.01123 3.67890 35945 ft 468 kts 345°
2026-05-06 12:41 53.07410 3.65284 35938 ft 468 kts 344°
2026-05-06 12:41 53.13620 3.62665 35946 ft 468 kts 344°
2026-05-06 12:42 53.19922 3.59988 35947 ft 468 kts 344°
2026-05-06 12:42 53.26214 3.57305 35955 ft 468 kts 344°
2026-05-06 12:43 53.32533 3.54599 36085 ft 471 kts 344°
2026-05-06 12:43 53.35694 3.53243 36251 ft 470 kts 344°
2026-05-06 12:43 53.38863 3.51880 36371 ft 470 kts 344°
2026-05-06 12:44 53.42041 3.50512 36510 ft 470 kts 344°
2026-05-06 12:44 53.45157 3.49169 36616 ft 470 kts 344°
2026-05-06 12:44 53.48327 3.47800 36735 ft 470 kts 343°
2026-05-06 12:44 53.51487 3.46433 36835 ft 471 kts 343°
2026-05-06 12:45 53.54669 3.45055 36946 ft 471 kts 343°
2026-05-06 12:45 53.57831 3.43683 37030 ft 471 kts 343°
2026-05-06 12:45 53.64125 3.40946 37242 ft 471 kts 343°
2026-05-06 12:46 53.67306 3.39559 37341 ft 471 kts 343°
2026-05-06 12:46 53.73647 3.36789 37527 ft 472 kts 343°
2026-05-06 12:47 53.79891 3.34053 37695 ft 472 kts 342°
2026-05-06 12:47 53.86215 3.31273 37857 ft 473 kts 342°
2026-05-06 12:47 53.89400 3.29870 37964 ft 473 kts 342°
2026-05-06 12:48 53.92538 3.28485 38026 ft 473 kts 342°
2026-05-06 12:48 53.98934 3.25655 38200 ft 473 kts 342°
2026-05-06 12:49 54.05253 3.22851 38377 ft 473 kts 342°
2026-05-06 12:49 54.11369 3.20129 38518 ft 474 kts 342°
2026-05-06 12:50 54.17743 3.17283 38662 ft 474 kts 342°
2026-05-06 12:50 54.24104 3.14434 38804 ft 474 kts 342°
2026-05-06 12:51 54.30446 3.11584 38958 ft 474 kts 342°
2026-05-06 12:51 54.36798 3.08720 39098 ft 474 kts 342°
2026-05-06 12:52 54.43167 3.05839 39259 ft 473 kts 342°
2026-05-06 12:52 54.49500 3.02966 39400 ft 473 kts 342°
2026-05-06 12:53 54.55828 3.00086 39518 ft 473 kts 342°
2026-05-06 12:53 54.62165 2.97192 39622 ft 473 kts 342°
2026-05-06 12:54 54.68510 2.94286 39716 ft 473 kts 342°
2026-05-06 12:54 54.74845 2.91374 39810 ft 473 kts 342°
2026-05-06 12:55 54.81203 2.88442 39903 ft 473 kts 342°
2026-05-06 12:55 54.87510 2.85525 39974 ft 472 kts 342°
2026-05-06 12:56 54.93844 2.82586 39978 ft 472 kts 342°
2026-05-06 12:56 55.00164 2.79643 39980 ft 471 kts 342°
2026-05-06 12:57 55.06490 2.76688 39975 ft 471 kts 342°
2026-05-06 12:57 55.12791 2.73735 39969 ft 470 kts 342°
2026-05-06 12:58 55.19073 2.70781 39957 ft 470 kts 342°
2026-05-06 12:58 55.25362 2.67814 39943 ft 469 kts 342°
2026-05-06 12:59 55.31650 2.64838 39929 ft 469 kts 342°
2026-05-06 12:59 55.37951 2.61846 39917 ft 469 kts 342°
2026-05-06 13:00 55.44220 2.58860 39908 ft 469 kts 342°
2026-05-06 13:00 55.50454 2.55880 39892 ft 468 kts 342°
2026-05-06 13:01 55.56726 2.52872 39880 ft 468 kts 342°
2026-05-06 13:01 55.63017 2.49845 39863 ft 468 kts 342°
2026-05-06 13:02 55.69261 2.46830 39848 ft 468 kts 342°
2026-05-06 13:02 55.75524 2.43797 39837 ft 468 kts 342°
2026-05-06 13:03 55.81800 2.40748 39825 ft 468 kts 342°
2026-05-06 13:03 55.88027 2.37583 39813 ft 465 kts 336°
2026-05-06 13:04 55.93883 2.33044 39814 ft 463 kts 332°
2026-05-06 13:04 55.99756 2.28322 39816 ft 463 kts 332°
2026-05-06 13:05 56.05571 2.23592 39811 ft 463 kts 332°
2026-05-06 13:05 56.11422 2.18805 39802 ft 463 kts 332°
2026-05-06 13:06 56.17235 2.14026 39779 ft 463 kts 332°
2026-05-06 13:06 56.23094 2.09192 39767 ft 463 kts 332°
2026-05-06 13:07 56.28916 2.04371 39759 ft 463 kts 332°
2026-05-06 13:07 56.34719 1.99549 39773 ft 464 kts 332°
2026-05-06 13:08 56.40593 1.94652 39908 ft 464 kts 332°
2026-05-06 13:08 56.46403 1.89792 40016 ft 463 kts 332°
2026-05-06 13:09 56.52220 1.84910 40010 ft 463 kts 332°
2026-05-06 13:09 56.58034 1.80012 40002 ft 463 kts 332°
2026-05-06 13:10 56.63833 1.75112 39984 ft 462 kts 332°
2026-05-06 13:10 56.69669 1.70162 39972 ft 462 kts 332°
2026-05-06 13:11 56.75450 1.65243 39977 ft 462 kts 332°
2026-05-06 13:11 56.81273 1.60271 39970 ft 461 kts 332°
2026-05-06 13:12 56.87042 1.55329 39953 ft 461 kts 332°
2026-05-06 13:12 56.92824 1.50358 39937 ft 461 kts 332°
2026-05-06 13:13 56.98601 1.45374 39927 ft 461 kts 331°
2026-05-06 13:13 57.04377 1.40374 39914 ft 461 kts 331°
2026-05-06 13:14 57.10168 1.35343 39916 ft 460 kts 331°
2026-05-06 13:14 57.15939 1.30312 39936 ft 460 kts 330°
2026-05-06 13:15 57.21678 1.25293 39920 ft 460 kts 330°
2026-05-06 13:15 57.27448 1.20228 39919 ft 460 kts 330°
2026-05-06 13:16 57.33184 1.15175 39892 ft 460 kts 330°
2026-05-06 13:16 57.38921 1.10104 39903 ft 460 kts 330°
2026-05-06 13:17 57.44665 1.05010 39888 ft 459 kts 331°
2026-05-06 13:17 57.50438 0.99872 39881 ft 459 kts 330°
2026-05-06 13:18 57.56146 0.94774 39917 ft 458 kts 330°
2026-05-06 13:18 57.61880 0.89634 39911 ft 458 kts 330°
2026-05-06 13:19 57.67566 0.84519 39901 ft 458 kts 330°
2026-05-06 13:19 57.73298 0.79345 39901 ft 457 kts 330°
2026-05-06 13:20 57.78979 0.74199 39884 ft 457 kts 330°
2026-05-06 13:20 57.84694 0.69003 39895 ft 457 kts 330°
2026-05-06 13:21 57.90411 0.63787 39907 ft 456 kts 330°
2026-05-06 13:21 57.96017 0.58393 39887 ft 453 kts 325°
2026-05-06 13:22 58.01337 0.52199 39888 ft 453 kts 325°
2026-05-06 13:22 58.06686 0.45959 39897 ft 453 kts 325°
2026-05-06 13:23 58.12017 0.39709 39905 ft 452 kts 324°
2026-05-06 13:23 58.17342 0.33442 39917 ft 452 kts 324°
2026-05-06 13:24 58.22634 0.27193 39939 ft 451 kts 324°
2026-05-06 13:24 58.27953 0.20887 39960 ft 451 kts 324°
2026-05-06 13:25 58.33249 0.14587 39978 ft 450 kts 324°
2026-05-06 13:25 58.38540 0.08270 39986 ft 450 kts 324°
2026-05-06 13:26 58.43809 0.01955 39990 ft 450 kts 324°
2026-05-06 13:26 58.49089 -0.04394 40012 ft 450 kts 324°
2026-05-06 13:27 58.54364 -0.10761 40030 ft 450 kts 324°
2026-05-06 13:27 58.59619 -0.17125 40028 ft 450 kts 324°
2026-05-06 13:28 58.64883 -0.23525 40026 ft 450 kts 324°
2026-05-06 13:28 58.70132 -0.29928 40039 ft 449 kts 324°
2026-05-06 13:29 58.75377 -0.36351 40033 ft 448 kts 324°
2026-05-06 13:29 58.80635 -0.42811 40036 ft 448 kts 324°
2026-05-06 13:30 58.85846 -0.49240 40032 ft 447 kts 324°
2026-05-06 13:30 58.91078 -0.55717 40029 ft 447 kts 324°
2026-05-06 13:31 58.96262 -0.62156 40028 ft 446 kts 324°
2026-05-06 13:31 59.01483 -0.68668 40024 ft 446 kts 323°
2026-05-06 13:32 59.06683 -0.75175 40029 ft 446 kts 323°
2026-05-06 13:32 59.11852 -0.81667 40031 ft 446 kts 323°
2026-05-06 13:33 59.17042 -0.88210 40033 ft 445 kts 323°
2026-05-06 13:33 59.22194 -0.94729 40026 ft 445 kts 323°
2026-05-06 13:34 59.27370 -1.01301 40026 ft 444 kts 323°
2026-05-06 13:34 59.32536 -1.07886 40018 ft 444 kts 323°
2026-05-06 13:35 59.37668 -1.14451 40024 ft 444 kts 323°
2026-05-06 13:35 59.42811 -1.21054 40027 ft 444 kts 323°
2026-05-06 13:36 59.47971 -1.27705 40022 ft 444 kts 323°
2026-05-06 13:36 59.53081 -1.34402 40033 ft 441 kts 319°
2026-05-06 13:37 59.57373 -1.42836 40032 ft 436 kts 309°
2026-05-06 13:37 59.61319 -1.51776 40026 ft 435 kts 308°
2026-05-06 13:38 59.65240 -1.60837 40025 ft 435 kts 308°
2026-05-06 13:38 59.69134 -1.69935 40034 ft 435 kts 307°
2026-05-06 13:39 59.73001 -1.79027 40033 ft 435 kts 307°
2026-05-06 13:39 59.76898 -1.88236 40025 ft 435 kts 307°
2026-05-06 13:40 59.80767 -1.97418 40031 ft 435 kts 307°
2026-05-06 13:40 59.84604 -2.06564 40025 ft 435 kts 307°
2026-05-06 13:41 59.88483 -2.15844 40022 ft 435 kts 307°
2026-05-06 13:41 59.92326 -2.25076 40030 ft 435 kts 307°
2026-05-06 13:42 59.96193 -2.34403 40031 ft 435 kts 307°
2026-05-06 13:42 60.00023 -2.43677 40031 ft 432 kts 307°
2026-05-06 13:43 60.03760 -2.52762 40018 ft 421 kts 307°
2026-05-06 13:43 60.07450 -2.61772 40026 ft 421 kts 307°
2026-05-06 13:44 60.11141 -2.70818 40027 ft 423 kts 307°
2026-05-06 13:44 60.14852 -2.79947 40023 ft 424 kts 307°
2026-05-06 13:45 60.18563 -2.89113 40024 ft 424 kts 307°
2026-05-06 13:45 60.24120 -3.02908 40021 ft 424 kts 307°
2026-05-06 13:46 60.27805 -3.12100 40020 ft 425 kts 307°
2026-05-06 13:46 60.31504 -3.21363 40018 ft 424 kts 307°
2026-05-06 13:47 60.35171 -3.30585 40021 ft 425 kts 307°
2026-05-06 13:47 60.38853 -3.39883 40008 ft 425 kts 307°
2026-05-06 13:48 60.42519 -3.49175 40009 ft 424 kts 307°
2026-05-06 13:48 60.46188 -3.58512 40009 ft 424 kts 307°
2026-05-06 13:49 60.49825 -3.67807 40012 ft 423 kts 306°
2026-05-06 13:49 60.53477 -3.77176 40016 ft 424 kts 306°
2026-05-06 13:50 60.57132 -3.86592 40005 ft 424 kts 306°
2026-05-06 13:50 60.58947 -3.91283 39639 ft 432 kts 306°
2026-05-06 13:50 60.60807 -3.96098 39090 ft 432 kts 306°
2026-05-06 13:51 60.62638 -4.00847 38856 ft 419 kts 306°
2026-05-06 13:51 60.64396 -4.05414 38691 ft 409 kts 306°
2026-05-06 13:51 60.66153 -4.09992 38110 ft 408 kts 306°
2026-05-06 13:51 60.67871 -4.14478 37780 ft 401 kts 306°
2026-05-06 13:52 60.69574 -4.18930 37337 ft 398 kts 306°
2026-05-06 13:52 60.71262 -4.23353 36968 ft 393 kts 306°
2026-05-06 13:52 60.72914 -4.27688 36620 ft 387 kts 306°
2026-05-06 13:52 60.74555 -4.32008 36181 ft 384 kts 306°
2026-05-06 13:53 60.76169 -4.36259 35817 ft 379 kts 306°
2026-05-06 13:53 60.77767 -4.40477 35445 ft 374 kts 306°
2026-05-06 13:53 60.79336 -4.44628 35025 ft 372 kts 305°
2026-05-06 13:53 60.80911 -4.48800 34623 ft 367 kts 305°
2026-05-06 13:54 60.82447 -4.52877 34231 ft 364 kts 305°
2026-05-06 13:54 60.83982 -4.56959 33782 ft 361 kts 305°
2026-05-06 13:54 60.85514 -4.61038 33480 ft 356 kts 305°
2026-05-06 13:54 60.87000 -4.65003 33189 ft 351 kts 305°
2026-05-06 13:55 60.88480 -4.68960 32913 ft 346 kts 304°
2026-05-06 13:55 60.89919 -4.72814 32632 ft 342 kts 304°
2026-05-06 13:55 60.91355 -4.76663 32366 ft 337 kts 304°
2026-05-06 13:55 60.92773 -4.80473 32091 ft 332 kts 303°
2026-05-06 13:56 60.94161 -4.84206 31830 ft 328 kts 303°
2026-05-06 13:56 60.95538 -4.87918 31539 ft 324 kts 303°
2026-05-06 13:56 60.96886 -4.91554 31254 ft 320 kts 303°
2026-05-06 13:56 60.98230 -4.95188 30967 ft 315 kts 303°
2026-05-06 13:57 60.98690 -4.96432 30862 ft 313 kts 303°
2026-05-06 13:57 60.99347 -4.98212 30666 ft 311 kts 303°
2026-05-06 13:57 60.99435 -4.98447 30633 ft 312 kts 303°
2026-05-06 13:58 61.00058 -4.99965 30400 ft 315 kts 310°
2026-05-06 13:58 61.00688 -5.01190 30207 ft 318 kts 314°
2026-05-06 13:58 61.02389 -5.04063 29826 ft 315 kts 314°
2026-05-06 13:58 61.04055 -5.06930 29419 ft 312 kts 314°
2026-05-06 13:59 61.05385 -5.09220 29141 ft 309 kts 314°
2026-05-06 13:59 61.07008 -5.12015 28718 ft 308 kts 314°
2026-05-06 13:59 61.08651 -5.14849 28279 ft 304 kts 314°
2026-05-06 13:59 61.10266 -5.17633 27860 ft 301 kts 314°
2026-05-06 14:00 61.11867 -5.20403 27356 ft 300 kts 314°
2026-05-06 14:00 61.13451 -5.23142 26958 ft 297 kts 314°
2026-05-06 14:00 61.15024 -5.25870 26499 ft 296 kts 314°
2026-05-06 14:00 61.16600 -5.28606 26005 ft 295 kts 314°
2026-05-06 14:01 61.18159 -5.31312 25599 ft 291 kts 314°
2026-05-06 14:01 61.19716 -5.34021 25134 ft 290 kts 314°
2026-05-06 14:01 61.21236 -5.36670 24682 ft 288 kts 314°
2026-05-06 14:01 61.22772 -5.39351 24195 ft 287 kts 314°
2026-05-06 14:02 61.24292 -5.42005 23728 ft 285 kts 314°
2026-05-06 14:02 61.25781 -5.44609 23290 ft 284 kts 314°
2026-05-06 14:02 61.27295 -5.47264 22750 ft 285 kts 315°
2026-05-06 14:02 61.28785 -5.49872 22380 ft 280 kts 315°
2026-05-06 14:03 61.30273 -5.52485 21897 ft 280 kts 315°
2026-05-06 14:03 61.31754 -5.55090 21424 ft 280 kts 315°
2026-05-06 14:03 61.33225 -5.57678 21000 ft 278 kts 315°
2026-05-06 14:03 61.34686 -5.60254 20541 ft 277 kts 315°
2026-05-06 14:04 61.36165 -5.62864 20062 ft 277 kts 316°
2026-05-06 14:04 61.37628 -5.65447 19653 ft 274 kts 315°
2026-05-06 14:04 61.39079 -5.68014 19235 ft 273 kts 315°
2026-05-06 14:04 61.40523 -5.70574 18765 ft 274 kts 316°
2026-05-06 14:05 61.41959 -5.73121 18347 ft 272 kts 316°
2026-05-06 14:05 61.43394 -5.75666 17945 ft 271 kts 316°
2026-05-06 14:05 61.44825 -5.78213 17519 ft 270 kts 316°
2026-05-06 14:05 61.46254 -5.80757 17103 ft 269 kts 317°
2026-05-06 14:06 61.47674 -5.83287 16692 ft 268 kts 317°
2026-05-06 14:06 61.49081 -5.85798 16286 ft 267 kts 317°
2026-05-06 14:06 61.50490 -5.88314 15881 ft 266 kts 317°
2026-05-06 14:06 61.51899 -5.90834 15476 ft 265 kts 317°
2026-05-06 14:07 61.53303 -5.93350 15053 ft 266 kts 318°
2026-05-06 14:07 61.54709 -5.95871 14655 ft 264 kts 318°
2026-05-06 14:07 61.56092 -5.98355 14281 ft 263 kts 318°
2026-05-06 14:07 61.57473 -6.00839 13840 ft 263 kts 319°
2026-05-06 14:08 61.58856 -6.03327 13458 ft 262 kts 319°
2026-05-06 14:08 61.60239 -6.05819 13071 ft 261 kts 319°
2026-05-06 14:08 61.61602 -6.08278 12684 ft 261 kts 319°
2026-05-06 14:08 61.62973 -6.10755 12299 ft 260 kts 320°
2026-05-06 14:09 61.64349 -6.13244 11908 ft 260 kts 320°
2026-05-06 14:09 61.65708 -6.15704 11540 ft 259 kts 320°
2026-05-06 14:09 61.67062 -6.18160 11154 ft 258 kts 320°
2026-05-06 14:09 61.68428 -6.20639 10764 ft 258 kts 320°
2026-05-06 14:10 61.69768 -6.23074 10385 ft 258 kts 321°
2026-05-06 14:10 61.71135 -6.25561 9992 ft 258 kts 321°
2026-05-06 14:10 61.72478 -6.28006 9621 ft 257 kts 321°
2026-05-06 14:10 61.73831 -6.30475 9267 ft 256 kts 321°
2026-05-06 14:11 61.75177 -6.32932 8922 ft 255 kts 321°
2026-05-06 14:11 61.76512 -6.35375 8594 ft 253 kts 321°
2026-05-06 14:11 61.77827 -6.37782 8279 ft 250 kts 321°
2026-05-06 14:11 61.79124 -6.40160 7969 ft 244 kts 321°
2026-05-06 14:12 61.80407 -6.42513 7685 ft 245 kts 321°
2026-05-06 14:12 61.81699 -6.44885 7409 ft 250 kts 321°
2026-05-06 14:12 61.83026 -6.47325 7110 ft 249 kts 321°
2026-05-06 14:12 61.84321 -6.49711 6799 ft 247 kts 321°
2026-05-06 14:13 61.85606 -6.52078 6518 ft 246 kts 321°
2026-05-06 14:13 61.86898 -6.54463 6235 ft 246 kts 322°
2026-05-06 14:13 61.88118 -6.56920 5958 ft 247 kts 309°
2026-05-06 14:13 61.88825 -6.60259 5706 ft 251 kts 288°
2026-05-06 14:14 61.89278 -6.63832 5385 ft 254 kts 288°
2026-05-06 14:14 61.89736 -6.67443 5020 ft 252 kts 287°
2026-05-06 14:14 61.90175 -6.71048 4716 ft 247 kts 287°
2026-05-06 14:14 61.90596 -6.74559 4531 ft 245 kts 287°
2026-05-06 14:15 61.91000 -6.77979 4363 ft 237 kts 287°
2026-05-06 14:15 61.91388 -6.81287 4330 ft 224 kts 287°
2026-05-06 14:15 61.91746 -6.84373 4369 ft 205 kts 287°
2026-05-06 14:15 61.92073 -6.87202 4335 ft 188 kts 288°
2026-05-06 14:16 61.92368 -6.89755 4303 ft 168 kts 289°
2026-05-06 14:16 61.92644 -6.92130 4308 ft 169 kts 289°
2026-05-06 14:16 61.92938 -6.94631 4346 ft 176 kts 289°
2026-05-06 14:16 61.93227 -6.97133 4337 ft 175 kts 288°
2026-05-06 14:17 61.93516 -6.99650 4319 ft 175 kts 289°
2026-05-06 14:17 61.93805 -7.02152 4278 ft 175 kts 289°
2026-05-06 14:17 61.94096 -7.04693 4219 ft 175 kts 288°
2026-05-06 14:17 61.94380 -7.07174 4151 ft 175 kts 288°
2026-05-06 14:18 61.94666 -7.09681 4074 ft 175 kts 288°
2026-05-06 14:18 61.94951 -7.12181 3990 ft 174 kts 289°
2026-05-06 14:18 61.95239 -7.14711 3830 ft 181 kts 288°
2026-05-06 14:18 61.95536 -7.17311 3318 ft 183 kts 288°
2026-05-06 14:19 61.95828 -7.19937 2844 ft 180 kts 286°
2026-05-06 14:19 61.96113 -7.22429 2530 ft 163 kts 300°
2026-05-06 14:19 61.96740 -7.24281 2483 ft 156 kts 323°
2026-05-06 14:19 61.97649 -7.25633 2364 ft 161 kts 339°
2026-05-06 14:20 61.98680 -7.26297 2175 ft 154 kts 357°
2026-05-06 14:20 61.99718 -7.26262 1960 ft 140 kts 14°
2026-05-06 14:20 62.00591 -7.25672 1797 ft 128 kts 24°
2026-05-06 14:20 62.01378 -7.24807 1643 ft 126 kts 33°
2026-05-06 14:21 62.02118 -7.23755 1475 ft 131 kts 32°
2026-05-06 14:21 62.02913 -7.22778 1233 ft 132 kts 25°
2026-05-06 14:21 62.03780 -7.22221 1002 ft 133 kts
2026-05-06 14:21 62.04676 -7.22587 841 ft 134 kts 338°
2026-05-06 14:22 62.05388 -7.23929 590 ft 144 kts 305°
2026-05-06 14:22 62.05882 -7.25793 357 ft 142 kts 299°
2026-05-06 14:22 62.06295 -7.27464 295 ft 84 kts 297°
2026-05-06 14:22 62.06415 -7.27949 294 ft 14 kts 298°
2026-05-06 14:23 62.06455 -7.28104 294 ft 6 kts 313°
2026-05-06 14:23 62.06495 -7.28126 294 ft 7 kts
2026-05-06 14:23 62.06541 -7.28093 294 ft 6 kts 18°
2026-05-06 14:23 62.06578 -7.28077 294 ft 5 kts
2026-05-06 14:24 62.06609 -7.28072 294 ft 4 kts
2026-05-06 14:24 62.06642 -7.28052 294 ft 2 kts 35°
2026-05-06 14:24 62.06645 -7.27981 294 ft 6 kts 105°
2026-05-06 14:24 62.06630 -7.27890 294 ft 6 kts 111°
2026-05-06 14:25 62.06614 -7.27817 294 ft 5 kts 117°
2026-05-06 14:25 62.06609 -7.27768 294 ft 1 kts 75°
2026-05-06 14:25 62.06612 -7.27760 294 ft 0 kts 46°
2026-05-06 14:25 62.06624 -7.27743 294 ft 2 kts 29°
2026-05-06 14:26 62.06636 -7.27729 294 ft 4 kts 29°
2026-05-06 14:26 62.06642 -7.27722 294 ft 0 kts 29°